Regional Weather Roundup
Issued by NWS

Home | Current Version | Previous Version | Text Only | Print | Product List | Glossary Off
Versions: 1 2 3 4 5 6 7 8 9 10 11 12 13 14 15 16 17 18 19 20 21 22 23 24 25 26 27

000
ASUS45 KSLC 220010
RWRUT

UTAH REGIONAL WEATHER ROUNDUP
NATIONAL WEATHER SERVICE SALT LAKE CITY UT
600 PM MDT TUE MAR 21 2017

UTZ001>011-023>025-220100-

NORTHERN UTAH

CITY           SKY/WX    TMP DP  RH WIND       PRES   REMARKS
BRIGHAM CITY     N/A     71  31  23 S12       29.83F
HILL AFB       MOSUNNY   69  30  23 S14       29.85F
LOGAN          PTSUNNY   72  34  24 S10       29.84F
OGDEN          CLOUDY    71  30  21 S10       29.83F
SALT LAKE CITY CLOUDY    72  29  20 S16G30    29.82F
WENDOVER       PTSUNNY   72  27  18 SW18      29.77F
HEBER CITY     CLOUDY    64  27  24 SE10      29.93S

$$

UTZ011>015-024>027-220100-

CENTRAL/NORTHEAST UTAH

CITY           SKY/WX    TMP DP  RH WIND       PRES   REMARKS
PROVO AIRPORT  PTSUNNY   68  36  30 S23       29.88F
MOAB/CANYONLAN PTSUNNY   75  17  11 SW23G30   29.93F
DELTA          MOSUNNY   68  27  21 S22G37    29.90F
PRICE          CLOUDY    66  26  22 S7        29.98F
ROOSEVELT      CLOUDY    66  32  28 SW7       29.98F
VERNAL         CLOUDY    68  30  24 SW10      29.96F

$$

UTZ013>016-019>022-027-220100-

SOUTHERN UTAH

CITY           SKY/WX    TMP DP  RH WIND       PRES   REMARKS
BRYCE CANYON   MOSUNNY   59  29  31 S16G23    30.12F
CEDAR CITY     CLOUDY    64  28  25 S21       30.00S
MILFORD        MOSUNNY   70  27  20 S31G45    29.93F
ST GEORGE      CLOUDY    78  29  16 W9        29.90F
HANKSVILLE     SUNNY     75  27  16 SW20G28   29.96S
BLANDING       PTSUNNY   69  20  15 W9        30.14S

$$

REGIONAL REPORTS     COLORADO/ARIZONA

CITY           SKY/WX    TMP DP  RH WIND       PRES   REMARKS
CRAIG, CO      CLOUDY    65  22  19 SW15      30.01F
GRAND JUNCTION CLOUDY    73  21  14 S13       29.97S
RIFLE, CO      PTSUNNY   71  19  14 S6        30.01F
MONTROSE, CO   PTSUNNY   69  25  19 SW20      30.07S
CORTEZ, CO     CLOUDY    70  24  17 S22G30    30.10R
COLORADO CITY  MOCLDY    70  32  24 NW13      30.03S
PAGE, AZ       SUNNY     79  20  11 VRB6      29.95F
GRAND CANYON   MOSUNNY   66  18  15 SW20G28   30.12F
KINGMAN, AZ    MOSUNNY   74  12   9 SW21      29.98F
FLAGSTAFF, AZ  SUNNY     62  28  27 SW17      30.16S

$$

REGIONAL REPORTS    NEVADA/IDAHO/WYOMING

CITY           SKY/WX    TMP DP  RH WIND       PRES   REMARKS
LAS VEGAS, NV  PTSUNNY   79  38  22 W13G26    29.87F
ELY, NY        LGT RAIN  57  33  40 S16G28    29.91F
ELKO, NV       LGT RAIN  53  39  59 W24G33    29.89R
POCATELLO, ID  CLOUDY    67  33  28 S15       29.81F
BURLEY, ID     PTSUNNY   69  31  24 W6        29.73F
FORT BRIDGER,  MOCLDY    60  27  28 SW16      30.04S
EVANSTON, WY   CLOUDY    55  27  34 SW17      29.99F
ROCK SPRINGS,  CLOUDY    58  32  37 W10G20    30.03R
KEMMERER, WY     N/A     50  30  46 SW12      30.02S

$$




USA.gov is the U.S. government's official web portal to all federal, state and local government web resources and services.